Location: Austin
(30.3000°N, 97.7500°W)
Time: 05:26:19
(UTC-06:00)

Lacrosse 5 rocket - Pass Details

Date: 03 March 2026
Orbit: 397 x 480 km, 57.0° (Epoch: 5 March)

Event Time Altitude Azimuth Distance (km) Brightness Sun altitude
Rises 19:02:17 0° 306° (NW) 2,475 5.6 -7.5°
Reaches altitude 10° 19:04:44 10° 290° (WNW) 1,612 5.0 -8.0°
Maximum altitude 19:07:33 21° 239° (WSW) 1,091 3.8 -8.6°
Drops below altitude 10° 19:10:23 10° 188° (S) 1,630 3.9 -9.2°
Sets 19:12:53 0° 172° (S) 2,511 4.6 -9.7°
